Hourly Data Report for December 03, 2018

CARBERRY CS
MANITOBA
Current Station Operator: ECCC - MSC

49°54'20.900" N
99°21'26.800" W
383.50 m
5010547
71170
WZE

Download Data

Hourly Data (December 2018)
Hourly Data Report for December 3, 2018
TIME
LST
Temp Definition
°C
Dew Point Definition
°C
Rel Hum Definition
%
Precip. Amount Definition
mm

Wind Dir Definition
10's deg

Wind Spd Definition
km/h
Visibility Definition
km
Stn Press Definition
kPa
Hmdx Definition


Wind Chill Definition


Weather Definition


00:00 -6.9 -7.8 94 0.0   0   97.80     LegendNANA
01:00 -6.9 -7.8 93 0.0   0   97.84     LegendNANA
02:00 -6.9 -7.8 93 0.0   0   97.82     LegendNANA
03:00 -7.0 -7.9 93 0.0   0   97.83     LegendNANA
04:00 -7.0 -7.9 93 0.0 26 5   97.82   -10 LegendNANA
05:00 -7.0 -7.9 93 0.0 26 4   97.83   -9 LegendNANA
06:00 -7.0 -7.8 93 0.0 23 4   97.83   -9 LegendNANA
07:00 -6.7 -7.6 94 0.0 24 5   97.82   -9 LegendNANA
08:00 -6.5 -7.3 94 0.0 25 7   97.80   -10 LegendNANA
09:00 -6.5 -7.3 94 0.0 24 10   97.80   -11 LegendNANA
10:00 -6.4 -7.2 94 0.0 24 8   97.79   -10 LegendNANA
11:00 -6.1 -6.9 94 0.0 24 9   97.78   -10 LegendNANA
12:00 -5.7 -6.5 94 0.0 24 9   97.71   -10 LegendNANA
13:00 -5.7 -6.6 94 0.0 24 10   97.66   -10 LegendNANA
14:00 -5.9 -6.7 94 0.0 24 10   97.65   -10 LegendNANA
15:00 -6.3 -7.1 94 0.0 24 10   97.62   -11 LegendNANA
16:00 -7.2 -8.1 93 0.0 26 12   97.62   -13 LegendNANA
17:00 -7.6 -8.5 93 0.0 24 9   97.61   -12 LegendNANA
18:00 -7.3 -8.2 93 0.0 25 7   97.59   -11 LegendNANA
19:00 -6.4 -7.2 94 0.0 23 9   97.56   -11 LegendNANA
20:00 -5.4 -5.9 96 0.0 24 9   97.50   -9 LegendNANA
21:00 -4.8 -5.2 97 0.0 26 17   97.46   -11 LegendNANA
22:00 -5.9 -6.6 95 0.0 23 9   97.40   -10 LegendNANA
23:00 -7.2 -8.2 93 0.0 23 9   97.37   -12 LegendNANA

Notes on Data Quality.

Legend

  • E = Estimated
  • M = Missing
  • NA = Not Available*
  • [empty] = Indicates an unobserved value
Date modified: